Flag for Austria Weather past 2 weeks in Bruck an der Leitha, Lower Austria, Austria

Now
34 °F

Passing clouds.


Feels Like: 28 °F
Forecast: 31 / 34 °F
Wind: 7 mph from Northwest

Location: Wien / Schwechat-Flughafen

Current Time: Jan 28, 2015 at 5:15:50 AM

Latest Report: Jan 28, 2015 at 4:00 AM


Visibility: 9 mi

Pressure: 30.08 "Hg

Humidity: 84%

Dew point: 30 °F

Location of Bruck an der LeithaLocation

Historic Weather in Bruck an der Leitha — Graph

°F

Bruck an der Leitha temperature yesterday

Maximum temperature yesterday: 38 °F (at 1:00 PM)
Minimum temperature yesterday: 24 °F (at 2:00 AM)
Average temperature yesterday: 33 °F

Past Weeks' High & Low Weather Summary

 TemperatureHumidityPressure
High53 °F (Jan 17, 6:00 AM)100% (Jan 20, 3:00 AM)30.34 "Hg (Jan 20, 3:00 AM)
Low24 °F (Jan 27, 2:00 AM)57% (Jan 15, 1:00 AM)29.73 "Hg (Jan 17, 6:00 AM)
Average37 °F84%30.03 "Hg
* Reported Jan 13 3:00 AM — Jan 28 3:00 AM, Bruck an der Leitha, Weather by CustomWeather, © 2014

Note: Actual official high and low records may vary slightly from our data, if they occured in-between our weather recording intervals... More about our weather records

Advertising

Bruck an der Leitha weather history for previous 24 hours

 ConditionsComfort  
Time TempWeatherWind HumidityBarometerVisibility
3:00 AM
Jan 28
34 °FPassing clouds.6 mph86%30.10 "Hg11 mi
2:00 AM35 °FPassing clouds.8 mph85%30.10 "Hg9 mi
1:00 AM35 °FPassing clouds.8 mph84%30.09 "Hg11 mi
12:00 AM36 °FOvercast.8 mph81%30.09 "Hg14 mi
11:00 PM
Jan 27
36 °FOvercast.7 mph80%30.09 "Hg19 mi
10:00 PM35 °FOvercast.6 mph82%30.09 "Hg19 mi
9:00 PM36 °FOvercast.7 mph80%30.08 "Hg25 mi
8:00 PM36 °FOvercast.8 mph81%30.07 "Hg25 mi
7:00 PM37 °FOvercast.7 mph80%30.05 "Hg25 mi
6:00 PM37 °FOvercast.8 mph80%30.03 "Hg28 mi
5:00 PM37 °FOvercast.7 mph80%30.02 "Hg22 mi
4:00 PM38 °FOvercast.8 mph79%30.02 "Hg25 mi
1:00 PM38 °FOvercast.8 mph77%29.99 "Hg22 mi
12:00 PM37 °FOvercast.8 mph81%30.01 "Hg12 mi
11:00 AM35 °FLight snow. Low clouds.6 mph90%30.02 "Hg6 mi
10:00 AM33 °FHeavy snow. Low clouds.5 mph97%30.02 "Hg1 mi
9:00 AM32 °FLight snow. Low clouds.6 mph94%30.02 "Hg2 mi
8:00 AM30 °FLight snow. Low clouds.6 mph96%30.01 "Hg1 mi
7:00 AM29 °FLight snow. Ice fog.N/A98%30.01 "Hg2 mi
Weather by CustomWeather, © 2014

See weather overviewHow to use our weather pages